[Iaude] MPEC A10: 2016 YF11 [a=1.73,e=0.40,i=17.0,H=20.8]

mpec at si.edu mpec at si.edu
Mon Jan 2 22:41:22 EST 2017


M.P.E.C. 2017-A10                                Issued 2017 Jan. 3, 03:38 UT
 
     The Minor Planet Electronic Circulars contain information on unusual
         minor planets and routine data on comets.  They are published
    on behalf of Division F of the International Astronomical Union by the
          Minor Planet Center, Smithsonian Astrophysical Observatory,
                          Cambridge, MA 02138, U.S.A.

             Prepared using the Tamkin Foundation Computer Network

                              MPC at CFA.HARVARD.EDU
            URL http://www.minorplanetcenter.net/    ISSN 1523-6714


                                   2016 YF11
 
Observations:
     K16Y11F* C2016 12 28.38375 09 44 17.59 -16 56 35.8          19.9 rREA010G45
     K16Y11F  C2016 12 28.38905 09 44 19.77 -16 56 23.8          19.4 rREA010G45
     K16Y11F  C2016 12 28.39383 09 44 21.70 -16 56 13.1          19.6 rREA010G45
     K16Y11F  C2016 12 28.39865 09 44 23.65 -16 56 02.3          19.8 rREA010G45
     K16Y11F  C2017 01 01.79439 10 17 44.80 -13 34 02.5          18.9 RoEA010300
     K16Y11F  C2017 01 01.79601 10 17 45.59 -13 33 58.0          18.7 RoEA010300
     K16Y11F  C2017 01 01.79763 10 17 46.36 -13 33 51.7          18.6 RoEA010300
     K16Y11F  C2017 01 01.80248 10 17 48.57 -13 33 36.6          18.6 RoEA010300
     K16Y11F  C2017 01 02.58674 10 24 14.90 -12 49 10.1          18.8 wLEA010T05
     K16Y11F  C2017 01 02.60065 10 24 21.45 -12 48 20.9          18.6 wLEA010T05
     K16Y11F  C2017 01 02.61452 10 24 28.02 -12 47 32.6          18.8 wLEA010T05
     K16Y11F  C2017 01 02.62868 10 24 34.80 -12 46 43.0          18.8 wLEA010T05
     K16Y11F  C2017 01 02.70914 10 25 17.16 -12 42 09.9          18.3 RoEA010300
     K16Y11F  C2017 01 02.71186 10 25 18.48 -12 42 00.4          18.4 RoEA010300
     K16Y11F  C2017 01 02.71417 10 25 19.59 -12 41 52.2          18.4 RoEA010300
     K16Y11F  C2017 01 02.71649 10 25 20.72 -12 41 44.4          18.3 RoEA010300
     K16Y11F KC2017 01 03.09070 10 28 28.14 -12 19 38.5                qEA010J95
     K16Y11F KC2017 01 03.09548 10 28 30.49 -12 19 22.2                qEA010J95
     K16Y11F KC2017 01 03.10072 10 28 33.05 -12 19 02.9          18.8 RqEA010J95
 
Observer details:
300 Bisei Spaceguard Center--BATTeRS.  Observers S. Okumura, T. Fujiwara.
    1.0-m f/3.0 reflector + CCD.
G45 Space Surveillance Telescope, Atom Site.  Observers M. Blythe, R. Brungard,
    P. Festler, T. McVey, J. Paige, G. Spitz.  Measurers M. Cornell, A. Klein,
    J. Ruprecht, G. Ushomirsky, J. Varey, D. Woods.  3.5-m f/1 reflector + CCD.
J95 Great Shefford.  Observer P. Birtwhistle.  0.40-m f/6.0 Schmidt-Cassegrain
    + CCD.
T05 ATLAS-HKO, Haleakala.  Observers L. Denneau, A. Heinze, H. Weiland,
    B. Stalder, J. Tonry, A. Sherstyuk.  Measurers L. Denneau, A. Heinze,
    J. Tonry.  0.5-m f/2.0 Schmidt + CCD.
 
Orbital elements:
2016 YF11                                                Earth MOID = 0.0617 AU
Epoch 2017 Feb. 16.0 TT = JDT 2457800.5                 MPC
M   9.01411              (2000.0)            P               Q
n   0.43283480     Peri.   14.70103     -0.68944812     -0.67820871
a   1.7308307      Node   119.65426     +0.63151583     -0.73480116
e   0.4005170      Incl.   17.01874     +0.35475209     -0.01001024
P   2.28           H   20.8           G   0.15           U   6
Residuals in seconds of arc
161228 G45  0.0   0.2-    170101 300  0.5-  0.1-    170102 300  0.2-  0.3+
161228 G45  0.3+  0.1-    170102 T05  0.7+  0.3-    170102 300  0.0   0.0
161228 G45  0.0   0.0     170102 T05  0.3-  0.3+    170103 J95  0.0   0.3+
161228 G45  0.1-  0.0     170102 T05  0.8-  0.0     170103 J95  0.1+  0.6-
170101 300  0.3-  0.7+    170102 T05  0.3-  0.1-    170103 J95  0.1-  0.1-
170101 300  0.2+  0.1-    170102 300  0.3-  0.2+
170101 300  0.4+  0.8+    170102 300  0.2-  0.2+

Ephemeris:
2016 YF11                a,e,i = 1.73, 0.40, 17                  q = 1.0376
Date    TT    R. A. (2000) Decl.     Delta      r     Elong.  Phase     V
2016 12 04    07 47 03.0 -20 51 02   0.3296  1.1754   117.6    48.0    20.5
...
2016 12 19    08 47 41.1 -20 35 16   0.2335  1.1127   118.0    51.4    19.8
...
2016 12 27    09 34 43.3 -17 44 34   0.1905  1.0856   117.9    53.2    19.3
...
2017 01 02    10 19 25.1 -13 22 05   0.1649  1.0689   117.2    54.9    19.0
2017 01 03    10 27 41.2 -12 24 20   0.1613  1.0664   117.1    55.2    19.0
2017 01 04    10 36 10.4 -11 22 23   0.1580  1.0640   116.8    55.5    18.9
...
2017 01 10    11 30 53.5 -03 48 15   0.1442  1.0518   114.7    58.1    18.8
...
2017 01 18    12 47 04.6 +08 11 45   0.1435  1.0413   109.8    62.7    18.9
...
2017 02 02    14 39 59.4 +24 45 15   0.1868  1.0402   101.9    68.0    19.6

A. U. Tomatic                (C) Copyright 2017 MPC           M.P.E.C. 2017-A10




More information about the Iaude mailing list